Location: Aldlan
(53.1833°N, 5.8167°E)
Time: 17:53:24
(UTC+00:00)

Daily predictions for brighter satellites

Satellite Brightness Start Highest point End
(mag) Time Altitude Azimuth Time Altitude Azimuth Time Altitude Azimuth
Cosmos 304 Rocket 4.2 17:35:18 10° SW 17:40:06 68° WNW 17:44:55 10° NNE
Cosmos 1741 Rocket 4.1 17:35:56 10° NNW 17:41:19 84° ENE 17:46:38 10° SSE
Cosmos 1437 3.9 17:42:39 10° NNE 17:44:54 20° ENE 17:47:08 10° ESE
RESURS DK-1 4.0 17:43:07 10° NW 17:46:59 39° WSW 17:50:49 10° S
Cosmos 1943 Rocket 4.4 17:44:18 10° NW 17:47:38 16° NNW 17:50:58 10° NNE
ERS-2 3.2 17:45:11 10° NE 17:48:11 23° E 17:51:10 10° SSE
Cosmos 1697 Rocket 2.9 17:42:59 10° S 17:48:26 51° ESE 17:53:54 10° NE
USA 234 4.1 17:43:14 10° ENE 17:49:01 32° SE 17:54:47 10° SSW
MOS 1 Rocket 3.4 17:44:40 10° NNE 17:49:28 73° ESE 17:54:32 10° S
SL-16 R/B 3.9 17:52:57 10° ESE 17:53:57 10° E 17:54:58 10° E
IRS-1C Rocket 4.1 17:49:10 10° SSE 17:54:26 87° ENE 17:59:46 10° NNW
PSLV R/B 4.5 17:53:15 10° NNE 17:57:06 36° E 18:00:54 10° SSE
NOSS 2-1 (E) 4.1 17:52:27 10° NW 17:57:07 84° NE 18:03:42 10° SE
Okean O Rocket 3.7 17:54:18 10° SSW 17:58:13 33° W 18:02:10 10° NNW
Cosmos 2369 3.9 17:54:52 10° S 18:00:17 50° ESE 18:05:47 10° NE
USA 305 4.4 17:57:13 10° S 18:00:26 21° SE 18:03:07 12° E
Cosmos 1607 4.0 17:57:50 10° SSW 18:04:13 71° SE 18:10:42 10° NE
SeaSat 1 2.9 17:59:42 10° NE 18:04:23 41° ESE 18:09:03 10° S
Cosmos 2369 Rocket 4.4 18:01:24 10° WNW 18:04:54 16° NNW 18:08:24 10° NNE
SKYMED 2 3.6 18:02:04 10° NNE 18:06:26 87° WNW 18:10:48 10° SSW
Cosmos 2263 Rocket 2.2 18:01:14 10° NNW 18:06:47 59° NE 18:12:16 10° SE
Ariane Rocket 4.1 18:03:29 10° ESE 18:07:36 25° ENE 18:11:42 10° N
Resurs 01 Rocket 3.6 18:07:04 11° ENE 18:08:05 12° NE 18:09:41 10° NNE
CZ-4 R/B 1.3 18:04:20 10° SSE 18:08:11 84° WSW 18:12:06 10° NNW
USA 307 4.3 18:04:52 10° S 18:08:11 22° SE 18:10:33 14° E
Cosmos 1420 Rocket 4.4 18:04:30 10° SW 18:09:48 70° WNW 18:15:10 10° NNE
Cosmos 2227 Rocket 4.3 18:09:16 10° NW 18:14:12 31° WSW 18:19:05 10° SSW
Cosmos 2074 Rocket 4.4 18:08:42 10° SSE 18:14:30 41° E 18:20:17 10° NNE
USA 306 4.1 18:11:01 10° SSW 18:14:30 25° SE 18:16:44 16° E
SAR-Lupe-1 4.5 18:12:05 10° NNE 18:15:31 40° E 18:18:56 10° S
USA 308 4.1 18:14:52 10° SSW 18:18:22 25° SE 18:20:27 18° E
H-2A R/B 3.5 18:15:11 10° N 18:19:01 38° WNW 18:22:48 10° SW
Cosmos 1743 Rocket 3.7 18:16:35 10° SSW 18:20:56 78° W 18:25:23 10° N
Cosmos 1805 Rocket 3.5 18:17:41 10° S 18:22:00 62° E 18:26:22 10° NNE
Meteor 1-27 Rocket 3.8 18:18:12 10° NNW 18:23:47 82° W 18:29:18 10° S
Cosmos 2228 Rocket 3.8 18:22:21 10° NNW 18:26:51 59° W 18:31:16 10° S
Cosmos 2184 Rocket 4.2 18:21:13 10° SSE 18:27:03 47° E 18:32:56 10° NNE
H-2A R/B 2.6 18:22:38 10° S 18:28:02 68° WSW 18:33:31 10° NNW
USA 186 2.9 18:29:49 17° NNE 18:29:49 17° NNE 18:30:44 10° NNE
ARGOS 3.2 18:23:23 10° SSE 18:28:49 88° WSW 18:34:18 10° NNW
Cosmos 1271 Rocket 2.6 18:25:57 10° N 18:29:41 60° ENE 18:33:22 10° SSE
Cosmos 1862 4.2 18:25:56 10° SSW 18:29:52 52° WNW 18:33:51 10° N
COSMOS 2455 3.2 18:24:17 10° NW 18:30:17 66° WSW 18:36:14 10° SSE
SJ-6B 3.6 18:28:38 16° ESE 18:31:21 34° ENE 18:35:05 10° N
OBJECT-B 2.0 18:32:14 24° ENE 18:32:14 24° ENE 18:34:54 10° N
Cosmos 2278 3.8 18:27:07 10° S 18:32:38 56° ESE 18:38:13 10° NE
FALCON 9 DEB 4.2 18:30:13 10° SSW 18:32:54 25° SSE 18:33:29 24° SE
SL-08 RB Rocket 3.6 18:29:06 10° SSE 18:33:34 76° ENE 18:38:08 10° NNW
GP-B 3.9 18:33:08 14° SE 18:36:14 30° ENE 18:40:08 10° NNE
Okean 1 3.8 18:32:32 10° N 18:36:20 39° ENE 18:38:49 19° SE
HJ-1C 3.6 18:33:01 10° S 18:36:21 70° WSW 18:39:42 10° NNW
CZ-2C R/B 2.8 18:30:55 10° NNE 18:36:24 52° E 18:41:43 10° S
Cosmos 1689 Rocket 1.8 18:33:59 10° NNE 18:36:52 79° ESE 18:39:43 10° SSW
Cosmos 44 Rocket 3.8 18:33:10 10° NW 18:38:16 49° NE 18:41:15 23° E
FALCON 9 DEB 3.0 18:35:34 10° W 18:39:01 86° S 18:40:27 32° E
MetOp-A 4.2 18:34:18 10° SE 18:39:31 56° ENE 18:44:46 10° N
Cosmos 1602 4.4 18:36:22 10° SSE 18:39:48 31° E 18:43:16 10° NNE
Cosmos 1862 Rocket 3.7 18:36:55 10° N 18:41:19 51° ENE 18:45:36 11° SSE
Cosmos 2278 Rocket 4.1 18:38:32 10° NNW 18:42:01 16° NNE 18:44:39 12° NE
CSL-04 Debris 4.3 18:36:39 10° SSE 18:42:05 79° WSW 18:47:35 10° NNW
ATLAS 5 CENTAUR R/B 3.1 18:29:56 10° SW 18:43:39 89° SE 18:46:35 19° NE
Cosmos 2084 3.5 18:39:37 10° SSW 18:43:47 58° SE 18:46:19 23° ENE
Cosmos 1666 Rocket 3.6 18:39:42 10° S 18:43:55 50° E 18:48:07 10° NNE
Cosmos 1844 Rocket 3.4 18:39:37 10° NNW 18:44:43 34° NE 18:47:04 25° E
BREEZE-M DEB (TANK) 2.5 18:43:14 10° SW 18:45:25 38° SSE 18:46:17 30° ESE
Cosmos 1486 Rocket 4.1 18:41:42 10° NNW 18:46:54 57° ENE 18:50:26 20° SE
Gbstr 26 Del rocket 4.1 18:43:43 10° SSW 18:47:49 33° SE 18:49:30 26° ESE
Cosmos 1331 Rocket 3.9 18:42:39 10° SSW 18:47:54 71° ESE 18:53:09 10° NNE
CSL-04 Rocket 3.9 18:43:55 10° S 18:49:29 75° WSW 18:55:03 10° NNW
Cosmos 292 Rocket 3.9 18:46:21 10° SSW 18:51:06 75° WNW 18:55:53 10° NNE
Resurs 1-3 4.3 18:50:32 30° E 18:51:30 34° ENE 18:55:28 10° N
COSMO-SKYMED 1 4.3 18:50:27 10° N 18:54:23 34° WNW 18:58:18 10° SW
SPOT 3 Rocket 4.4 18:53:33 28° E 18:54:49 31° ENE 18:59:23 10° N
FALCON 9 DEB 4.0 18:54:24 10° SW 18:56:59 31° SSE 18:56:59 31° SSE
YAOGAN 1 4.3 18:54:18 10° SSW 18:58:16 34° W 19:02:14 10° NNW
Helios 1A Rocket 3.9 18:54:40 10° S 18:58:37 47° W 19:02:34 10° NNW
Okean-O 4.3 18:55:32 10° SSW 18:59:36 35° W 19:03:43 10° NNW
Cosmos 220 Rocket 3.9 18:58:37 10° SSW 19:02:50 83° WNW 19:07:08 10° NNE
SL-4 R/B 1.8 18:59:38 10° WSW 19:03:04 51° SSE 19:03:19 49° SSE
APEX 2.6 19:02:15 10° NW 19:05:24 71° WSW 19:05:43 62° S
FALCON 9 DEB 3.8 19:02:40 10° SW 19:05:10 36° S 19:05:10 36° S
Lacrosse 5 rocket 4.0 19:03:28 10° W 19:06:17 17° SW 19:09:00 10° SSW
Cosmos 1354 Rocket 4.3 19:02:36 10° NNW 19:07:42 46° NE 19:09:06 37° E
Cosmos 1980 Rocket 2.2 19:02:15 10° SSW 19:07:56 85° WNW 19:13:42 10° NNE
CZ-4B R/B 4.3 19:06:11 10° NNW 19:08:14 17° WNW 19:10:16 10° WSW
Sich 1 3.6 19:06:00 10° SSW 19:10:19 61° WNW 19:14:44 10° N
Cosmos 2084 Rocket 3.7 19:07:58 10° NW 19:12:11 55° NE 19:12:58 47° ENE
Cosmos 968 Rocket 3.5 19:10:31 10° NNW 19:15:48 84° WSW 19:19:11 23° SSE
Cosmos 1302 Rocket 3.9 19:10:49 10° SSW 19:15:56 65° ESE 19:21:07 10° NNE
ARIANE 5 R/B 4.5 19:17:50 18° NE 19:17:50 18° NE 19:19:49 10° N
Cosmos 2322 Rocket 3.4 19:12:31 10° S 19:15:03 24° SSE 19:15:03 24° SSE
ERS-2 3.7 19:18:25 10° N 19:21:49 36° WNW 19:25:11 10° SW
Cosmos 1503 Rocket 3.9 19:17:13 10° NNW 19:22:27 64° ENE 19:23:43 48° ESE
Cosmos 1867 3.5 19:19:26 10° SW 19:24:54 87° SE 19:28:07 26° NE
Cosmos 1633 Rocket 3.1 19:21:59 10° SSW 19:26:24 79° WNW 19:30:51 10° N
Cosmos 724 4.5 19:20:18 10° SW 19:26:24 79° NW 19:31:47 15° NE
Meteor 1-20 Rocket 4.2 19:24:57 10° SSW 19:30:25 77° WNW 19:35:56 10° NNE
Cosmos 1697 Rocket 3.9 19:27:15 10° WSW 19:32:35 40° NW 19:37:55 10° NNE
USA 234 3.1 19:29:24 32° ENE 19:32:41 78° SSE 19:39:14 10° WSW
SJ 16-02 3.4 19:30:11 10° N 19:31:50 15° NNE 19:31:50 15° NNE
Cosmos 1943 Rocket 4.4 19:31:11 10° NNW 19:33:56 13° N 19:36:18 11° NE
Terra 4.0 19:37:35 13° NNE 19:37:35 13° NNE 19:38:39 10° NNE
SL-16 R/B 2.2 19:31:18 10° S 19:36:48 56° ESE 19:37:13 54° E
USA 305 3.2 19:35:38 10° WSW 19:39:14 56° SSW 19:39:14 56° SSW
SeaSat 1 3.5 19:37:16 10° NNE 19:41:57 44° NW 19:46:37 10° WSW
MOS 1 4.4 19:39:28 21° S 19:43:21 73° WSW 19:49:05 10° NNW
Resurs 01 Rocket 2.0 19:44:38 50° NNE 19:44:38 50° NNE 19:48:08 10° N
DMSP B5D2-2 4.2 19:38:46 10° NNE 19:44:01 74° WNW 19:49:13 10° SSW
Ariane Rocket 3.3 19:43:24 27° S 19:46:10 67° WSW 19:51:17 10° NNW
USA 307 3.5 19:43:27 10° WSW 19:46:43 49° SW 19:46:43 49° SW
Okean 1-7 3.3 19:43:16 10° N 19:46:54 58° N 19:46:54 58° N
Cosmos 2242 Rocket 3.6 19:45:47 10° NNW 19:50:16 84° WNW 19:50:16 84° WNW
Cosmos 2263 Rocket 3.8 19:45:36 10° NW 19:50:25 31° WSW 19:55:12 10° SSW
Cosmos 2154 Rocket 4.1 19:44:27 10° SSW 19:50:40 73° WNW 19:56:55 10° N
Cosmos 2369 Rocket 4.5 19:48:59 10° NNW 19:51:25 13° N 19:53:46 10° NNE
USA 306 3.7 19:49:47 10° WSW 19:52:52 46° SW 19:52:52 46° SW
MetOp-B 4.2 19:55:08 59° NE 19:55:08 59° NE 20:00:02 10° N
ASTEX 1 3.6 19:50:58 10° N 19:54:53 56° NNE 19:54:53 56° NNE
USA 308 3.8 19:53:41 10° WSW 19:56:37 42° SW 19:56:37 42° SW
Cosmos 1470 Rocket 3.9 19:54:03 10° SSW 19:58:31 66° WNW 20:03:00 10° N
Meteor 1-14 Rocket 4.1 19:55:28 10° SSW 20:01:05 86° WNW 20:06:41 10° NNE
OBJECT-B 3.1 20:05:18 24° WNW 20:05:18 24° WNW 20:07:17 10° NNW
Cosmos 1703 Rocket 4.1 20:01:29 10° NNW 20:05:13 57° NW 20:05:13 57° NW
Meteor 2-4 Rocket 4.2 20:03:57 10° NNW 20:09:35 61° W 20:11:52 36° SSW
Cosmos 1241 Rocket 4.5 20:05:07 10° NW 20:11:45 70° NE 20:12:09 69° ENE
CZ-2C R/B 4.3 20:11:32 10° N 20:16:29 34° WNW 20:21:22 10° WSW
Cosmos 1844 3.7 20:12:16 10° NNW 20:17:59 82° W 20:17:59 82° W
Cosmos 1932 4.3 20:11:43 10° SW 20:18:13 84° SE 20:18:17 84° ESE
Cosmos 44 Rocket 4.2 20:14:53 10° NW 20:19:53 45° WSW 20:19:59 45° SW
USA 281 3.8 20:22:43 43° NE 20:22:43 43° NE 20:28:32 10° NNW
Meteor 1-13 Rocket 4.3 20:16:45 10° NNW 20:22:45 82° WSW 20:22:47 82° WSW
Cosmos 2278 Rocket 3.2 20:22:25 10° NNW 20:26:30 35° NNE 20:26:30 35° NNE
Cosmos 1844 Rocket 3.0 20:23:27 10° NW 20:28:45 60° WSW 20:28:45 60° WSW
SPOT 3 Rocket 4.2 20:34:11 52° W 20:34:11 52° W 20:39:09 10° NNW
Cosmos 2341 Rocket 4.3 20:31:11 21° SSW 20:35:33 65° WNW 20:41:50 10° N
SL-8 Rocket 4.0 20:37:29 76° WNW 20:37:29 76° WNW 20:43:38 10° N
Cosmos 2366 rocket 4.4 20:49:09 59° N 20:49:09 59° N 20:54:18 10° N
Cosmos 1980 Rocket 4.2 20:48:05 10° W 20:52:46 26° NW 20:57:30 10° NNE
Cosmos 1727 Rocket 4.4 20:54:19 10° NNW 20:59:28 57° NW 20:59:28 57° NW
Cosmos 2322 Rocket 4.3 20:55:52 10° SW 20:57:04 17° SW 20:57:04 17° SW
SJ 16-02 4.0 21:07:55 10° NNW 21:08:49 16° NNW 21:08:49 16° NNW
Terra 4.2 21:16:28 18° NNW 21:16:28 18° NNW 21:17:41 10° NNW
USA 234 3.6 21:16:44 59° NW 21:16:44 59° NW 21:22:11 10° W
Cosmos 1943 Rocket 4.2 21:15:05 10° NNW 21:17:50 21° N 21:17:50 21° N
Resurs 01 Rocket 4.3 21:22:11 16° WNW 21:22:11 16° WNW 21:23:52 10° NW
SL-16 R/B 3.8 21:15:57 10° WSW 21:28:35 - NNE 21:19:19 30° W
Cosmos 2369 Rocket 4.4 21:33:17 10° NNW 21:35:33 19° N 21:35:33 19° N
Cosmos 2278 Rocket 4.4 22:06:33 10° NW 22:08:22 21° NW 22:08:22 21° NW
